Somerville, NJ

4:29 PM EDT on May 26, 2017 (GMT -0400)
Somerset

Weather History for KSMQ - January, 2012

Change the Weather History Date:

Tuesday, January 3, 2012

  Actual Average Record
Temperature  
Mean Temperature 22 °F -  
Max Temperature 30 °F 38 °F 62 °F (2000)
Min Temperature 14 °F 20 °F -5 °F (2001)
Degree Days  
Heating Degree Days 42    
Moisture  
Dew Point 4 °F    
Average Humidity 44    
Maximum Humidity 69    
Minimum Humidity 29    
Precipitation  
Precipitation 0.00 in - - ()
Sea Level Pressure  
Sea Level Pressure 29.98 in    
Wind  
Wind Speed 8 mph (NW)    
Max Wind Speed 20 mph    
Max Gust Speed 30 mph    
Visibility 10 miles    
Events      
Averages and records for this station are not official NWS values.
T = Trace of Precipitation, MM = Missing Value Source: NWS Daily Summary

Daily Weather History Graph

Daily Weather History Graph

Search for Another Location

Airport or City:

Trip Planner

Search our weather history database for the weather conditions in past years. The results will help you decide how hot, cold, wet, or windy it might be!

Date:

Astronomy

Jan. 03, 2012 Rise Set
Actual Time 7:22 AM EST 4:43 PM EST
Civil Twilight 6:51 AM EST 5:14 PM EST
Nautical Twilight 6:17 AM EST 5:48 PM EST
Astronomical Twilight 5:44 AM EST 6:21 PM EST
Moon 12:30 PM EST (1/3) 2:10 AM EST (1/3)
Length of Visible Light 10h 22m
Length of Day
9h 20m
Waxing Gibbous, 72% of the Moon is Illuminated
Jan 3
Waxing Gibbous
Jan 9
Full
Jan 16
Last Quarter
Jan 23
New
Jan 30
First Quarter

Hourly Weather History & Observations

Time (EST) Temp. Windchill Dew Point Humidity Pressure Visibility Wind Dir Wind Speed Gust Speed Precip Events Conditions
12:53 AM 30.0 °F - 19.0 °F 64% 29.83 in 10.0 mi Calm Calm - N/A   Clear
1:53 AM 30.0 °F - 19.0 °F 64% 29.83 in 10.0 mi Calm Calm - N/A   Clear
2:53 AM 28.9 °F 25.2 °F 19.0 °F 67% 29.83 in 10.0 mi Variable 3.5 mph - N/A   Clear
3:53 AM 28.0 °F 24.2 °F 19.0 °F 69% 29.83 in 10.0 mi Variable 3.5 mph - N/A   Clear
4:53 AM 28.0 °F 21.7 °F 15.1 °F 58% 29.84 in 10.0 mi WNW 5.8 mph - N/A   Clear
5:53 AM 27.0 °F 15.2 °F 6.1 °F 41% 29.86 in 10.0 mi NW 15.0 mph 21.9 mph N/A   Clear
6:53 AM 26.1 °F 17.6 °F 5.0 °F 41% 29.89 in 10.0 mi NW 8.1 mph - N/A   Clear
7:53 AM 25.0 °F 16.3 °F 6.1 °F 45% 29.91 in 10.0 mi WNW 8.1 mph - N/A   Clear
8:53 AM 27.0 °F 16.7 °F 7.0 °F 43% 29.94 in 10.0 mi NW 11.5 mph - N/A   Scattered Clouds
9:53 AM 25.0 °F 13.6 °F 8.1 °F 49% 29.94 in 10.0 mi NW 12.7 mph 23.0 mph N/A   Mostly Cloudy
10:53 AM 26.1 °F 12.7 °F 3.9 °F 39% 29.94 in 10.0 mi NW 18.4 mph 28.8 mph N/A   Clear
11:53 AM 26.1 °F 15.0 °F 3.0 °F 37% 29.93 in 10.0 mi NNW 12.7 mph 27.6 mph N/A   Clear
12:53 PM 26.1 °F 13.6 °F 3.9 °F 39% 29.93 in 10.0 mi North 16.1 mph 23.0 mph N/A   Mostly Cloudy
1:53 PM 25.0 °F 10.9 °F 3.0 °F 39% 29.95 in 10.0 mi NW 19.6 mph 27.6 mph N/A   Partly Cloudy
2:53 PM 25.0 °F 11.3 °F -0.0 °F 34% 29.97 in 10.0 mi WNW 18.4 mph 29.9 mph N/A   Partly Cloudy
3:53 PM 24.1 °F 10.6 °F -4.0 °F 29% 30.00 in 10.0 mi NNW 17.3 mph 29.9 mph N/A   Clear
4:53 PM 23.0 °F 12.4 °F -2.9 °F 32% 30.05 in 10.0 mi NNW 10.4 mph - N/A   Clear
5:53 PM 21.9 °F 8.2 °F -2.0 °F 35% 30.08 in 10.0 mi NNW 16.1 mph 21.9 mph N/A   Clear
6:53 PM 21.0 °F 9.3 °F -2.0 °F 36% 30.13 in 10.0 mi NNW 11.5 mph 21.9 mph N/A   Clear
7:53 PM 19.0 °F 8.2 °F -2.9 °F 38% 30.15 in 10.0 mi NW 9.2 mph 17.3 mph N/A   Clear
8:53 PM 18.0 °F 7.7 °F -2.9 °F 40% 30.16 in 10.0 mi NNW 8.1 mph - N/A   Clear
9:53 PM 17.1 °F 2.5 °F -6.0 °F 36% 30.17 in 10.0 mi NNW 15.0 mph 24.2 mph N/A   Clear
10:53 PM 15.1 °F 0.5 °F -5.1 °F 41% 30.17 in 10.0 mi NW 13.8 mph 20.7 mph N/A   Clear
11:53 PM 14.0 °F 2.0 °F -4.0 °F 45% 30.18 in 10.0 mi NW 9.2 mph - N/A   Clear